Location: Azul
(36.7830°S, 59.8500°W)
Time: 00:38:26
(UTC-03:00)

FO-29 - Pass Details

Date: 27 October 2021
Orbit: 799 x 1322 km, 98.5° (Epoch: 28 November)

Event Time Altitude Azimuth Distance (km) Brightness Sun altitude
Rises 21:22:23 0° 159° (SSE) 4,159 13.0 -21.3°
Reaches altitude 10° 21:25:12 10° 151° (SSE) 3,245 12.3 -21.7°
Maximum altitude 21:32:17 41° 83° (E) 1,824 10.5 -22.9°
Enters shadow 21:33:30 39° 62° (ENE) 1,889 10.4 -23.1°
